#timestamp,LO_Frequency,Hit,Temp,Hum 
1487815215.4,286046999.4,N,0.0,0.0
1487815235.3,286046998.5,N,0.0,0.0
1487815255.1,286047001.2,N,0.0,0.0
1487815275.8,286046999.8,N,0.0,0.0
1487815295.7,286046999.4,N,0.0,0.0
1487815315.5,286046996.9,N,0.0,0.0
1487815335.3,286046998.4,N,0.0,0.0
1487815355.2,286046997.8,N,0.0,0.0
1487815375.9,286046997.9,N,0.0,0.0
1487815395.7,286046996.1,N,0.0,0.0
1487815415.6,286046997.9,N,0.0,0.0
1487815435.4,286046997.4,N,0.0,0.0
1487815455.2,286047000.6,N,0.0,0.0
1487815475.1,286047002.4,N,0.0,0.0
1487815476.0,286047002.4,N,0.0,0.0
1487815495.8,286047001.9,N,0.0,0.0
1487815515.6,286047004.2,N,0.0,0.0
1487815535.5,286047003.0,N,0.0,0.0
1487815555.3,286047006.0,N,0.0,0.0
1487815575.3,286047005.8,N,0.0,0.0
1487815595.2,286047003.4,N,0.0,0.0
1487815615.9,286047003.5,N,0.0,0.0
1487815635.7,286047003.7,N,0.0,0.0
1487815655.6,286047003.7,N,0.0,0.0
1487815675.4,286047004.1,N,0.0,0.0
1487815695.2,286047004.3,N,0.0,0.0
1487815715.8,286047003.1,N,0.0,0.0
1487815735.6,286047003.0,N,0.0,0.0
1487815755.5,286047005.8,Y,0.0,0.0
1487815775.3,286047000.5,N,0.0,0.0
1487815795.1,286046999.8,N,0.0,0.0
1487815815.9,286047001.0,N,0.0,0.0
1487815835.7,286046996.9,N,0.0,0.0
1487815855.5,286046997.2,N,0.0,0.0
1487815875.3,286046996.8,N,0.0,0.0
1487815895.2,286046996.6,N,0.0,0.0
1487815915.0,286046997.7,N,0.0,0.0
1487815915.9,286046997.7,N,0.0,0.0
1487815935.7,286046997.6,N,0.0,0.0
1487815955.6,286046998.4,N,0.0,0.0
1487815975.4,286047000.3,N,0.0,0.0
1487815995.2,286047002.0,N,0.0,0.0
1487816015.1,286047003.1,N,0.0,0.0
1487816016.0,286047003.1,N,0.0,0.0
1487816035.8,286047003.3,N,0.0,0.0
1487816055.6,286047003.8,N,0.0,0.0
1487816075.5,286047000.3,N,0.0,0.0
1487816095.3,286047002.0,N,0.0,0.0
1487816115.1,286047004.2,N,0.0,0.0
1487816135.9,286047002.8,N,0.0,0.0
1487816155.7,286047006.0,N,0.0,0.0
1487816175.5,286046999.1,N,0.0,0.0
1487816195.4,286047003.0,N,0.0,0.0
1487816215.2,286047001.3,N,0.0,0.0
1487816235.0,286046999.8,N,0.0,0.0
1487816235.9,286046999.8,N,0.0,0.0
1487816255.8,286046999.9,N,0.0,0.0
1487816275.6,286047000.2,N,0.0,0.0
1487816295.4,286046998.3,N,0.0,0.0
1487816315.3,286046998.3,N,0.0,0.0
1487816335.1,286046997.4,N,0.0,0.0
1487816336.0,286046997.4,N,0.0,0.0
1487816355.8,286046997.8,N,0.0,0.0
1487816375.7,286046996.8,N,0.0,0.0
1487816395.5,286046999.6,N,0.0,0.0
1487816415.3,286046998.3,N,0.0,0.0
1487816435.1,286047002.1,N,0.0,0.0
1487816455.9,286047004.2,N,0.0,0.0
1487816475.6,286047001.9,N,0.0,0.0
1487816495.4,286047000.8,N,0.0,0.0
1487816515.3,286046999.4,N,0.0,0.0
1487816535.1,286047002.9,N,0.0,0.0
1487816536.0,286047002.9,N,0.0,0.0
1487816555.2,286047001.5,N,0.0,0.0
1487816575.1,286047002.2,N,0.0,0.0
1487816576.0,286047002.2,N,0.0,0.0
1487816595.8,286047000.6,N,0.0,0.0
1487816615.6,286047002.8,N,0.0,0.0
1487816635.5,286047003.4,N,0.0,0.0
1487816655.3,286047001.4,N,0.0,0.0
1487816675.1,286047004.0,N,0.0,0.0
1487816695.8,286047003.8,N,0.0,0.0
1487816715.6,286047002.2,N,0.0,0.0
1487816735.4,286047004.4,Y,0.0,0.0
1487816755.2,286047000.1,N,0.0,0.0
1487816775.1,286046998.5,N,0.0,0.0
1487816776.0,286046998.5,N,0.0,0.0
1487816795.8,286046998.3,N,0.0,0.0
1487816815.6,286047000.9,N,0.0,0.0
1487816835.4,286047000.2,N,0.0,0.0
1487816855.2,286047002.5,N,0.0,0.0
1487816875.1,286046999.9,N,0.0,0.0
1487816876.0,286046999.9,N,0.0,0.0
1487816895.8,286047001.5,N,0.0,0.0
1487816915.6,286047003.3,N,0.0,0.0
1487816935.5,286047001.4,N,0.0,0.0
1487816955.3,286047002.4,N,0.0,0.0
1487816975.1,286047001.6,N,0.0,0.0
1487816995.9,286047000.9,N,0.0,0.0
1487817015.7,286047000.4,N,0.0,0.0
1487817035.5,286047002.7,N,0.0,0.0
1487817055.4,286047002.2,N,0.0,0.0
1487817075.2,286047003.2,N,0.0,0.0
1487817095.0,286047003.4,N,0.0,0.0
1487817095.9,286047003.4,N,0.0,0.0
1487817115.8,286047003.0,N,0.0,0.0
1487817135.6,286047003.3,N,0.0,0.0
1487817155.4,286047001.8,N,0.0,0.0
1487817175.3,286047004.3,Y,0.0,0.0
1487817195.1,286047001.6,N,0.0,0.0
1487817215.8,286047004.3,Y,0.0,0.0
1487817235.7,286047002.4,N,0.0,0.0
1487817255.5,286046999.4,N,0.0,0.0
1487817275.3,286046999.4,N,0.0,0.0
1487817295.2,286046999.1,N,0.0,0.0
1487817315.9,286046996.6,N,0.0,0.0
1487817335.7,286047000.7,N,0.0,0.0
1487817355.6,286046996.9,N,0.0,0.0
1487817375.4,286047002.9,N,0.0,0.0
1487817395.2,286047002.2,N,0.0,0.0
1487817415.1,286046997.2,N,0.0,0.0
1487817416.0,286046997.2,N,0.0,0.0
1487817435.8,286046995.4,N,0.0,0.0
1487817455.6,286046999.3,N,0.0,0.0
1487817475.5,286047001.1,N,0.0,0.0
1487817495.3,286047000.3,N,0.0,0.0
1487817515.1,286047002.1,N,0.0,0.0
1487817535.9,286047004.1,N,0.0,0.0
1487817555.7,286047002.4,N,0.0,0.0
1487817575.5,286047001.6,N,0.0,0.0
1487817595.4,286047002.3,N,0.0,0.0
1487817615.2,286046999.7,N,0.0,0.0
1487817635.0,286047004.4,N,0.0,0.0
1487817635.9,286047004.4,N,0.0,0.0
1487817655.8,286046997.0,N,0.0,0.0
1487817675.6,286047001.1,N,0.0,0.0
1487817695.4,286047003.1,N,0.0,0.0
1487817715.3,286047004.3,N,0.0,0.0
1487817735.1,286047004.9,N,0.0,0.0
1487817736.0,286047004.9,N,0.0,0.0
1487817755.8,286047006.8,N,0.0,0.0
1487817775.7,286047004.9,N,0.0,0.0
1487817795.5,286047007.5,N,0.0,0.0
1487817815.2,286047005.0,N,0.0,0.0
1487817835.0,286047003.7,N,0.0,0.0
1487817835.9,286047003.7,N,0.0,0.0
1487817855.8,286047003.3,N,0.0,0.0
1487817875.6,286047004.2,N,0.0,0.0
1487817895.4,286047003.8,N,0.0,0.0
1487817915.3,286047004.7,N,0.0,0.0
1487817935.1,286047005.7,N,0.0,0.0
1487817955.8,286047008.6,Y,0.0,0.0
1487817975.7,286047001.5,N,0.0,0.0
1487817995.5,286047002.1,N,0.0,0.0
1487818015.3,286046998.5,N,0.0,0.0
1487818035.2,286046999.4,N,0.0,0.0
1487818055.9,286046999.1,N,0.0,0.0
1487818075.7,286046999.1,N,0.0,0.0
1487818095.6,286047000.3,N,0.0,0.0
1487818115.0,286047004.4,N,0.0,0.0
1487818135.5,286047000.1,N,0.0,0.0
1487818155.3,286047000.2,N,0.0,0.0
1487818175.2,286047001.8,N,0.0,0.0
1487818195.9,286047003.8,N,0.0,0.0
1487818215.7,286047004.5,N,0.0,0.0
1487818235.5,286047005.4,N,0.0,0.0
1487818255.4,286047005.0,N,0.0,0.0
1487818275.2,286047005.9,N,0.0,0.0
1487818295.0,286047003.9,N,0.0,0.0
1487818295.9,286047003.9,N,0.0,0.0
1487818315.8,286047002.3,N,0.0,0.0
1487818335.6,286046999.7,N,0.0,0.0
1487818355.4,286047002.6,N,0.0,0.0
1487818375.3,286047001.7,N,0.0,0.0
1487818395.1,286047004.8,N,0.0,0.0
1487818415.8,286047002.9,N,0.0,0.0
1487818435.7,286047003.1,N,0.0,0.0
1487818455.5,286047005.2,N,0.0,0.0
1487818475.3,286047001.6,N,0.0,0.0
1487818495.2,286047002.3,N,0.0,0.0
1487818515.9,286047004.4,N,0.0,0.0
1487818535.7,286047002.2,N,0.0,0.0
1487818555.6,286047003.5,N,0.0,0.0
1487818575.3,286047003.7,N,0.0,0.0
1487818595.1,286047001.4,N,0.0,0.0
1487818615.9,286047003.7,N,0.0,0.0
1487818635.7,286047004.2,N,0.0,0.0
1487818655.5,286047002.9,N,0.0,0.0
1487818675.3,286047004.1,N,0.0,0.0
1487818695.2,286047004.1,Y,0.0,0.0
1487818715.0,286047002.8,N,0.0,0.0
1487818715.9,286047002.8,N,0.0,0.0
1487818735.8,286047001.0,N,0.0,0.0
1487818755.6,286047000.1,N,0.0,0.0
1487818775.4,286046998.1,N,0.0,0.0
1487818795.3,286046998.7,N,0.0,0.0
